"# Mixing ratio of CO2 (xCO2) in dry air measured onboard R/V Kaiyo-maru, Japan Fishery's Agency.",,,,,,,,,,,,,,,,,,,,,,
"# Version 1.1; 18 Oct, 2007.",,,,,,,,,,,,,,,,,,,,,,
# Measured by Meteorological Research Institute. ,,,,,,,,,,,,,,,,,,,,,,
# PI : H. Y. Inoue,,,,,,,,,,,,,,,,,,,,,,
# Concetrarion scale = MRI87,,,,,,,,,,,,,,,,,,,,,,
# Date and Time = UTC,,,,,,,,,,,,,,,,,,,,,,
Ship,Cruise,Serial No.,Date,,,Time,,Latitude,Longitude,xCO2_Air,F,xCO2_Sea,F,Wind_Dir,Wind_Spd,Atm_Prs,Atm_Tmp.,SST,F,SSS,F,pH2O
,,,Year,Month,Day,Hour,Min.,Deg.,Deg.,ppm,,ppm,,Deg.,m/s,hPa,deg.C,deg.C,,,,hPa
Kaiyo-Maru,Ki87,1,1987,10,28,15,,34.417,141.067,351.9,2,314,2,-99,-9.9,-9.9,-99.9,23.3,2,-9.999,9,28.06
Kaiyo-Maru,Ki87,2,1987,10,28,16,,34.35,141.333,349.6,2,302.4,2,-99,-9.9,-9.9,-99.9,24,2,-9.999,9,29.27
Kaiyo-Maru,Ki87,3,1987,10,28,17,,34.267,141.6,348.9,2,308,2,-99,-9.9,-9.9,-99.9,23.3,2,-9.999,9,28.06
Kaiyo-Maru,Ki87,4,1987,10,28,18,,34.217,141.867,349.7,2,310.8,2,-99,-9.9,-9.9,-99.9,23.8,2,-9.999,9,28.92
Kaiyo-Maru,Ki87,5,1987,10,28,19,,34.167,142.117,349,2,319.2,2,-99,-9.9,-9.9,-99.9,24.3,2,-9.999,9,29.8
Kaiyo-Maru,Ki87,6,1987,10,28,20,,34.1,142.367,347.5,2,317.7,2,-99,-9.9,-9.9,-99.9,24.7,2,-9.999,9,30.53
Kaiyo-Maru,Ki87,7,1987,10,28,21,,34.017,142.617,347.2,2,318,2,-99,-9.9,-9.9,-99.9,24.6,2,-9.999,9,30.34
Kaiyo-Maru,Ki87,8,1987,10,28,22,,33.933,142.85,347,2,315.4,2,-99,-9.9,-9.9,-99.9,24.8,2,-9.999,9,30.71
Kaiyo-Maru,Ki87,9,1987,10,28,23,,33.85,143.1,347.2,2,309.7,2,-99,-9.9,-9.9,-99.9,24.6,2,-9.999,9,30.34
Kaiyo-Maru,Ki87,10,1987,10,29,0,,33.75,143.333,347.3,2,315.5,2,-99,-9.9,-9.9,-99.9,24.5,2,-9.999,9,30.16
Kaiyo-Maru,Ki87,11,1987,10,29,1,,33.65,143.617,347.2,2,312.4,2,-99,-9.9,-9.9,-99.9,24.5,2,-9.999,9,30.16
Kaiyo-Maru,Ki87,12,1987,10,29,2,,33.567,143.817,347,2,309.5,2,-99,-9.9,-9.9,-99.9,24.8,2,-9.999,9,30.71
Kaiyo-Maru,Ki87,13,1987,10,29,3,,33.467,144.1,347.1,2,309.4,2,-99,-9.9,-9.9,-99.9,24.6,2,-9.999,9,30.34
Kaiyo-Maru,Ki87,14,1987,10,29,4,,33.383,144.367,347.1,2,315.1,2,-99,-9.9,-9.9,-99.9,24.7,2,-9.999,9,30.53
Kaiyo-Maru,Ki87,15,1987,10,29,5,,33.317,144.6,347.2,2,312.5,2,-99,-9.9,-9.9,-99.9,24.9,2,-9.999,9,30.89
Kaiyo-Maru,Ki87,16,1987,10,29,6,,33.233,144.917,347.3,2,304.4,2,-99,-9.9,-9.9,-99.9,24.9,2,-9.999,9,30.89
Kaiyo-Maru,Ki87,17,1987,10,29,7,,33.15,145.167,347.1,2,310.2,2,-99,-9.9,-9.9,-99.9,24.4,2,-9.999,9,29.98
Kaiyo-Maru,Ki87,18,1987,10,29,8,,33.067,145.433,347.3,2,308.4,2,-99,-9.9,-9.9,-99.9,24.8,2,-9.999,9,30.71
Kaiyo-Maru,Ki87,19,1987,10,29,9,,33,145.683,347.3,2,308.2,2,-99,-9.9,-9.9,-99.9,24.8,2,-9.999,9,30.71
Kaiyo-Maru,Ki87,20,1987,10,29,10,,32.917,145.933,347.3,2,313.4,2,-99,-9.9,-9.9,-99.9,24.8,2,-9.999,9,30.71
Kaiyo-Maru,Ki87,21,1987,10,29,11,,32.817,146.25,347.4,2,311.1,2,-99,-9.9,-9.9,-99.9,25.1,2,-9.999,9,31.26
Kaiyo-Maru,Ki87,22,1987,10,29,12,,32.75,146.433,347.4,2,307.8,2,-99,-9.9,-9.9,-99.9,25.1,2,-9.999,9,31.26
Kaiyo-Maru,Ki87,23,1987,10,29,13,,32.683,146.667,347.5,2,307.2,2,-99,-9.9,-9.9,-99.9,24.9,2,-9.999,9,30.89
Kaiyo-Maru,Ki87,24,1987,10,29,14,,32.6,146.417,347.5,2,310,2,-99,-9.9,-9.9,-99.9,24.8,2,-9.999,9,30.71
Kaiyo-Maru,Ki87,25,1987,10,29,15,,32.517,146.967,347.7,2,307.6,2,-99,-9.9,-9.9,-99.9,24.9,2,-9.999,9,30.89
Kaiyo-Maru,Ki87,26,1987,10,29,16,,32.433,147.367,347.8,2,302.9,2,-99,-9.9,-9.9,-99.9,25,2,-9.999,9,31.08
Kaiyo-Maru,Ki87,27,1987,10,29,17,,32.367,147.617,347.9,2,305.2,2,-99,-9.9,-9.9,-99.9,24.6,2,-9.999,9,30.34
Kaiyo-Maru,Ki87,28,1987,10,29,18,,32.283,147.85,347.7,2,308.4,2,-99,-9.9,-9.9,-99.9,24.7,2,-9.999,9,30.53
Kaiyo-Maru,Ki87,29,1987,10,29,19,,32.2,148.083,347.7,2,304.1,2,-99,-9.9,-9.9,-99.9,24.6,2,-9.999,9,30.34
Kaiyo-Maru,Ki87,30,1987,10,29,20,,32.133,148.317,347.7,2,300.8,2,-99,-9.9,-9.9,-99.9,24.4,2,-9.999,9,29.98
Kaiyo-Maru,Ki87,31,1987,10,29,21,,32.067,148.55,347.8,2,302.7,2,-99,-9.9,-9.9,-99.9,24,2,-9.999,9,29.27
Kaiyo-Maru,Ki87,32,1987,10,29,22,,31.983,148.783,347.8,2,308.5,2,-99,-9.9,-9.9,-99.9,24,2,-9.999,9,29.27
Kaiyo-Maru,Ki87,33,1987,10,29,23,,31.9,149,348.1,2,306.7,2,-99,-9.9,-9.9,-99.9,24,2,-9.999,9,29.27
Kaiyo-Maru,Ki87,34,1987,10,30,0,,31.817,149.233,347.7,2,307,2,-99,-9.9,-9.9,-99.9,24,2,-9.999,9,29.27
Kaiyo-Maru,Ki87,35,1987,10,30,1,,31.75,149.45,347.9,2,304.3,2,-99,-9.9,-9.9,-99.9,24.1,2,-9.999,9,29.45
Kaiyo-Maru,Ki87,36,1987,10,30,2,,31.667,149.683,347.8,2,305.7,2,-99,-9.9,-9.9,-99.9,24.4,2,-9.999,9,29.98
Kaiyo-Maru,Ki87,37,1987,10,30,3,,31.567,149.933,348,2,321.7,2,-99,-9.9,-9.9,-99.9,24.4,2,-9.999,9,29.98
Kaiyo-Maru,Ki87,38,1987,10,30,4,,31.5,150.183,347.9,2,314,2,-99,-9.9,-9.9,-99.9,25.1,2,-9.999,9,31.26
Kaiyo-Maru,Ki87,39,1987,10,30,5,,31.417,150.433,347.9,2,316.7,2,-99,-9.9,-9.9,-99.9,24.9,2,-9.999,9,30.89
Kaiyo-Maru,Ki87,40,1987,10,30,6,,31.35,150.683,347.9,2,317.2,2,-99,-9.9,-9.9,-99.9,24.9,2,-9.999,9,30.89
Kaiyo-Maru,Ki87,41,1987,10,30,7,,31.283,150.933,347.8,2,322.2,2,-99,-9.9,-9.9,-99.9,25.1,2,-9.999,9,31.26
Kaiyo-Maru,Ki87,42,1987,10,30,8,,31.217,151.183,347.9,2,323.8,2,-99,-9.9,-9.9,-99.9,25.1,2,-9.999,9,31.26
Kaiyo-Maru,Ki87,43,1987,10,30,9,,31.15,151.433,347.9,2,317.5,2,-99,-9.9,-9.9,-99.9,25.2,2,-9.999,9,31.45
Kaiyo-Maru,Ki87,44,1987,10,30,10,,31.05,151.817,347.9,2,319.3,2,-99,-9.9,-9.9,-99.9,24.7,2,-9.999,9,30.53
Kaiyo-Maru,Ki87,45,1987,10,30,11,,31.017,151.933,348.1,2,313.5,2,-99,-9.9,-9.9,-99.9,25.2,2,-9.999,9,31.45
Kaiyo-Maru,Ki87,46,1987,10,30,12,,30.933,152.183,348.2,2,315.8,2,-99,-9.9,-9.9,-99.9,24.7,2,-9.999,9,30.53
Kaiyo-Maru,Ki87,47,1987,10,30,13,,30.85,152.433,348.2,2,318.5,2,-99,-9.9,-9.9,-99.9,24.8,2,-9.999,9,30.71
Kaiyo-Maru,Ki87,48,1987,10,30,14,,30.767,152.683,348.1,2,322.1,2,-99,-9.9,-9.9,-99.9,24.8,2,-9.999,9,30.71
Kaiyo-Maru,Ki87,49,1987,10,30,15,,30.683,152.933,348.2,2,318.7,2,-99,-9.9,-9.9,-99.9,25.1,2,-9.999,9,31.26
Kaiyo-Maru,Ki87,50,1987,10,30,16,,30.617,153.183,348.1,2,316.9,2,-99,-9.9,-9.9,-99.9,27,4,-9.999,9,34.98
Kaiyo-Maru,Ki87,51,1987,10,30,17,,30.517,153.45,347.9,2,316,2,-99,-9.9,-9.9,-99.9,25.1,2,-9.999,9,31.26
Kaiyo-Maru,Ki87,52,1987,10,30,18,,30.433,153.717,347.9,2,317,2,-99,-9.9,-9.9,-99.9,24.9,2,-9.999,9,30.89
Kaiyo-Maru,Ki87,53,1987,10,30,19,,30.333,153.983,347.9,2,337.2,4,-99,-9.9,-9.9,-99.9,27,4,-9.999,9,34.98
Kaiyo-Maru,Ki87,54,1987,10,30,20,,30.25,154.233,348.1,2,322.7,2,-99,-9.9,-9.9,-99.9,24.7,2,-9.999,9,30.53
Kaiyo-Maru,Ki87,55,1987,10,30,21,,30.15,154.483,348,2,315.4,2,-99,-9.9,-9.9,-99.9,24.7,2,-9.999,9,30.53
Kaiyo-Maru,Ki87,56,1987,10,30,22,,30.067,154.733,347.9,2,316.2,2,-99,-9.9,-9.9,-99.9,24.7,2,-9.999,9,30.53
Kaiyo-Maru,Ki87,57,1987,10,30,23,,29.983,154.983,347.8,2,305.3,4,-99,-9.9,-9.9,-99.9,24.7,2,-9.999,9,30.53
Kaiyo-Maru,Ki87,58,1987,10,31,0,,29.883,155.217,347.8,2,310.9,2,-99,-9.9,-9.9,-99.9,24.8,2,-9.999,9,30.71
Kaiyo-Maru,Ki87,59,1987,10,31,1,,29.8,155.467,347.8,2,314.3,2,-99,-9.9,-9.9,-99.9,24.7,2,-9.999,9,30.53
Kaiyo-Maru,Ki87,60,1987,10,31,2,,29.717,155.7,347.7,2,318.9,2,-99,-9.9,-9.9,-99.9,24.6,2,-9.999,9,30.34
Kaiyo-Maru,Ki87,61,1987,10,31,3,,29.633,155.95,347.6,2,325.6,2,-99,-9.9,-9.9,-99.9,25.1,2,-9.999,9,31.26
Kaiyo-Maru,Ki87,62,1987,10,31,4,,29.55,156.2,347.6,2,323.1,2,-99,-9.9,-9.9,-99.9,25.5,2,-9.999,9,32.02
Kaiyo-Maru,Ki87,63,1987,10,31,5,,29.467,156.45,347.6,2,321.2,2,-99,-9.9,-9.9,-99.9,25.5,2,-9.999,9,32.02
Kaiyo-Maru,Ki87,64,1987,10,31,6,,29.367,156.683,347.7,2,325.2,2,-99,-9.9,-9.9,-99.9,25.3,2,-9.999,9,31.64
Kaiyo-Maru,Ki87,65,1987,10,31,7,,29.283,156.95,347.6,2,321.5,2,-99,-9.9,-9.9,-99.9,25.3,2,-9.999,9,31.64
Kaiyo-Maru,Ki87,66,1987,10,31,8,,29.217,157.183,347.7,2,322.6,2,-99,-9.9,-9.9,-99.9,25.3,2,-9.999,9,31.64
Kaiyo-Maru,Ki87,67,1987,10,31,9,,29.133,157.433,347.7,2,322.9,2,-99,-9.9,-9.9,-99.9,25.3,2,-9.999,9,31.64
Kaiyo-Maru,Ki87,68,1987,10,31,10,,29.033,157.667,347.7,2,324,2,-99,-9.9,-9.9,-99.9,25.3,2,-9.999,9,31.64
Kaiyo-Maru,Ki87,69,1987,10,31,11,,28.95,157.883,347.7,2,316.3,2,-99,-9.9,-9.9,-99.9,25.2,2,-9.999,9,31.45
Kaiyo-Maru,Ki87,70,1987,10,31,12,,28.883,158.117,347.8,4,326.8,2,-99,-9.9,-9.9,-99.9,24.6,2,-9.999,9,30.34
Kaiyo-Maru,Ki87,71,1987,10,31,13,,28.8,158.333,347.8,4,318.6,2,-99,-9.9,-9.9,-99.9,25.3,2,-9.999,9,31.64
Kaiyo-Maru,Ki87,72,1987,10,31,14,,28.7,158.633,347.9,2,321.3,2,-99,-9.9,-9.9,-99.9,25.2,2,-9.999,9,31.45
Kaiyo-Maru,Ki87,73,1987,11,31,15,,28.633,158.883,347.8,2,323,2,-99,-9.9,-9.9,-99.9,25.1,2,-9.999,9,31.26
Kaiyo-Maru,Ki87,74,1987,11,31,16,,28.55,159.117,347.7,2,326.1,2,-99,-9.9,-9.9,-99.9,25.3,2,-9.999,9,31.64
Kaiyo-Maru,Ki87,75,1987,11,31,17,,28.467,159.383,347.9,2,324.2,2,-99,-9.9,-9.9,-99.9,25.3,2,-9.999,9,31.64
Kaiyo-Maru,Ki87,76,1987,11,31,18,,28.4,159.617,347.8,2,324.7,2,-99,-9.9,-9.9,-99.9,25.4,2,-9.999,9,31.83
Kaiyo-Maru,Ki87,77,1987,11,31,19,,28.317,159.867,347.8,2,318.3,2,-99,-9.9,-9.9,-99.9,26,2,-9.999,9,32.98
Kaiyo-Maru,Ki87,78,1987,11,31,20,,28.25,160.117,347.6,2,315.9,2,-99,-9.9,-9.9,-99.9,25.9,2,-9.999,9,32.79
Kaiyo-Maru,Ki87,79,1987,11,31,21,,28.183,160.35,347.8,2,320.4,2,-99,-9.9,-9.9,-99.9,25.4,2,-9.999,9,31.83
Kaiyo-Maru,Ki87,80,1987,11,31,22,,28.117,160.6,347.8,2,328.8,2,-99,-9.9,-9.9,-99.9,25.4,2,-9.999,9,31.83
Kaiyo-Maru,Ki87,81,1987,11,31,23,,28.033,160.833,347.6,2,325.4,2,-99,-9.9,-9.9,-99.9,25.4,2,-9.999,9,31.83
Kaiyo-Maru,Ki87,82,1987,11,1,0,,27.933,161.067,347.8,2,331.1,2,-99,-9.9,-9.9,-99.9,25.4,2,-9.999,9,31.83
Kaiyo-Maru,Ki87,83,1987,11,1,1,,27.867,161.317,347.8,2,324.5,2,-99,-9.9,-9.9,-99.9,25.6,2,-9.999,9,32.21
Kaiyo-Maru,Ki87,84,1987,11,1,2,,27.8,161.55,347.7,2,320.8,2,-99,-9.9,-9.9,-99.9,25.4,2,-9.999,9,31.83
Kaiyo-Maru,Ki87,85,1987,11,1,3,,27.717,161.783,347.6,2,314.8,2,-99,-9.9,-9.9,-99.9,25.5,2,-9.999,9,32.02
Kaiyo-Maru,Ki87,86,1987,11,1,4,,27.65,162.017,347.7,2,322.5,2,-99,-9.9,-9.9,-99.9,25.4,2,-9.999,9,31.83
Kaiyo-Maru,Ki87,87,1987,11,1,5,,27.567,162.25,347.6,2,321.4,2,-99,-9.9,-9.9,-99.9,25.4,2,-9.999,9,31.83
Kaiyo-Maru,Ki87,88,1987,11,1,6,,27.483,162.483,347.6,2,326.9,2,-99,-9.9,-9.9,-99.9,25.3,2,-9.999,9,31.64
Kaiyo-Maru,Ki87,89,1987,11,1,7,,27.417,162.717,347.8,2,322.7,2,-99,-9.9,-9.9,-99.9,25.3,2,-9.999,9,31.64
Kaiyo-Maru,Ki87,90,1987,11,1,8,,27.317,162.967,347.7,2,322.6,2,-99,-9.9,-9.9,-99.9,25.6,2,-9.999,9,32.21
Kaiyo-Maru,Ki87,91,1987,11,1,9,,27.25,163.183,347.7,2,323.4,2,-99,-9.9,-9.9,-99.9,25.6,2,-9.999,9,32.21
Kaiyo-Maru,Ki87,92,1987,11,1,10,,27.15,163.483,347.8,2,318.5,2,-99,-9.9,-9.9,-99.9,25.6,2,-9.999,9,32.21
Kaiyo-Maru,Ki87,93,1987,11,1,11,,27.083,163.667,347.7,2,316.7,2,-99,-9.9,-9.9,-99.9,25.6,2,-9.999,9,32.21
Kaiyo-Maru,Ki87,94,1987,11,1,12,,27,163.9,347.8,2,320.2,2,-99,-9.9,-9.9,-99.9,25.6,2,-9.999,9,32.21
Kaiyo-Maru,Ki87,95,1987,11,1,13,,26.933,164.133,347.8,2,323.4,2,-99,-9.9,-9.9,-99.9,25.6,2,-9.999,9,32.21
Kaiyo-Maru,Ki87,96,1987,11,1,14,,26.85,164.367,347.6,2,320.8,2,-99,-9.9,-9.9,-99.9,25.7,2,-9.999,9,32.4
Kaiyo-Maru,Ki87,97,1987,11,1,15,,26.75,164.583,347.7,2,315.8,2,-99,-9.9,-9.9,-99.9,27.8,4,-9.999,9,36.66
Kaiyo-Maru,Ki87,98,1987,11,1,16,,26.667,164.817,347.7,2,321.1,2,-99,-9.9,-9.9,-99.9,25.7,2,-9.999,9,32.4
Kaiyo-Maru,Ki87,99,1987,11,1,17,,26.583,165.05,347.7,2,319.3,2,-99,-9.9,-9.9,-99.9,27.9,4,-9.999,9,36.87
Kaiyo-Maru,Ki87,100,1987,11,1,18,,26.5,165.267,347.6,2,321.4,2,-99,-9.9,-9.9,-99.9,25.7,2,-9.999,9,32.4
Kaiyo-Maru,Ki87,101,1987,11,1,19,,26.433,165.5,347.6,2,318.2,2,-99,-9.9,-9.9,-99.9,25.7,2,-9.999,9,32.4
Kaiyo-Maru,Ki87,102,1987,11,1,20,,26.35,165.717,347.5,2,318,2,-99,-9.9,-9.9,-99.9,25.7,2,-9.999,9,32.4
Kaiyo-Maru,Ki87,103,1987,11,1,21,,26.283,165.95,347.6,2,317.1,2,-99,-9.9,-9.9,-99.9,26.4,2,-9.999,9,33.77
Kaiyo-Maru,Ki87,104,1987,11,1,22,,26.217,166.167,347.6,2,316,2,-99,-9.9,-9.9,-99.9,26.5,2,-9.999,9,33.97
Kaiyo-Maru,Ki87,105,1987,11,1,23,,26.15,166.367,347.5,2,310.9,2,-99,-9.9,-9.9,-99.9,26.7,2,-9.999,9,34.37
Kaiyo-Maru,Ki87,106,1987,11,2,0,,26.083,166.583,347.6,2,308.1,2,-99,-9.9,-9.9,-99.9,26.5,2,-9.999,9,33.97
Kaiyo-Maru,Ki87,107,1987,11,2,1,,26.017,166.817,347.4,2,312.9,2,-99,-9.9,-9.9,-99.9,26.6,2,-9.999,9,34.17
Kaiyo-Maru,Ki87,108,1987,11,2,2,,25.95,167.033,347.5,2,313.9,2,-99,-9.9,-9.9,-99.9,26.6,2,-9.999,9,34.17
Kaiyo-Maru,Ki87,109,1987,11,2,3,,25.883,167.233,347.3,2,317.6,2,-99,-9.9,-9.9,-99.9,26.6,2,-9.999,9,34.17
Kaiyo-Maru,Ki87,110,1987,11,2,4,,25.783,167.45,347.4,2,320.5,2,-99,-9.9,-9.9,-99.9,26.4,2,-9.999,9,33.77
Kaiyo-Maru,Ki87,111,1987,11,2,5,,25.683,167.65,347.6,2,317.8,2,-99,-9.9,-9.9,-99.9,25.3,4,-9.999,9,31.64
Kaiyo-Maru,Ki87,112,1987,11,2,6,,25.6,167.883,347.4,2,312.2,2,-99,-9.9,-9.9,-99.9,25.1,4,-9.999,9,31.26
Kaiyo-Maru,Ki87,113,1987,11,2,7,,25.517,168.1,347.4,2,313.7,2,-99,-9.9,-9.9,-99.9,25.3,4,-9.999,9,31.64
Kaiyo-Maru,Ki87,114,1987,11,2,8,,25.45,168.333,347.5,2,310.9,2,-99,-9.9,-9.9,-99.9,26.4,2,-9.999,9,33.77
Kaiyo-Maru,Ki87,115,1987,11,2,9,,25.383,168.557,347.5,2,310.4,2,-99,-9.9,-9.9,-99.9,26.5,2,-9.999,9,33.97
Kaiyo-Maru,Ki87,116,1987,11,2,10,,25.35,168.781,347.7,2,313.1,2,-99,-9.9,-9.9,-99.9,26.4,2,-9.999,9,33.77
Kaiyo-Maru,Ki87,117,1987,11,2,11,,25.283,169.05,347.5,2,311,2,-99,-9.9,-9.9,-99.9,26.3,2,-9.999,9,33.57
Kaiyo-Maru,Ki87,118,1987,11,2,12,,25.233,169.267,347.4,2,320.2,2,-99,-9.9,-9.9,-99.9,26.2,2,-9.999,9,33.37
Kaiyo-Maru,Ki87,119,1987,11,2,13,,25.167,169.483,347.3,2,316.9,2,-99,-9.9,-9.9,-99.9,26.5,2,-9.999,9,33.97
Kaiyo-Maru,Ki87,120,1987,11,2,14,,25.067,169.7,347.3,2,317.9,2,-99,-9.9,-9.9,-99.9,26.2,2,-9.999,9,33.37
Kaiyo-Maru,Ki87,121,1987,11,2,15,,25.033,169.917,347.4,2,319,2,-99,-9.9,-9.9,-99.9,26.2,2,-9.999,9,33.37
Kaiyo-Maru,Ki87,122,1987,11,2,16,,24.983,170.117,347.4,2,322.5,2,-99,-9.9,-9.9,-99.9,26.4,2,-9.999,9,33.77
Kaiyo-Maru,Ki87,123,1987,11,2,17,,24.933,170.283,347.5,2,318.8,2,-99,-9.9,-9.9,-99.9,26.4,2,-9.999,9,33.77
Kaiyo-Maru,Ki87,124,1987,11,2,18,,24.917,170.467,347.3,2,313.3,2,-99,-9.9,-9.9,-99.9,26.3,2,-9.999,9,33.57
Kaiyo-Maru,Ki87,125,1987,11,2,19,,24.9,170.65,347.4,2,313.8,2,-99,-9.9,-9.9,-99.9,26.7,2,-9.999,9,34.37
Kaiyo-Maru,Ki87,126,1987,11,2,20,,24.883,170.833,347.4,2,312.1,2,-99,-9.9,-9.9,-99.9,26.8,2,-9.999,9,34.57
Kaiyo-Maru,Ki87,127,1987,11,2,21,,24.867,171.017,347.6,4,315.6,2,-99,-9.9,-9.9,-99.9,26.8,2,-9.999,9,34.57
Kaiyo-Maru,Ki87,128,1987,11,2,22,,24.85,171.2,347.4,2,316.9,2,-99,-9.9,-9.9,-99.9,27,2,-9.999,9,34.98
Kaiyo-Maru,Ki87,129,1987,11,2,23,,24.833,171.383,347.4,2,314.9,2,-99,-9.9,-9.9,-99.9,26.8,2,-9.999,9,34.57
Kaiyo-Maru,Ki87,130,1987,11,3,0,,24.8,171.55,348,4,314.9,2,-99,-9.9,-9.9,-99.9,26.4,2,-9.999,9,33.77
Kaiyo-Maru,Ki87,132,1987,11,3,2,,24.75,171.9,347.7,2,313.7,2,-99,-9.9,-9.9,-99.9,26.5,2,-9.999,9,33.97
Kaiyo-Maru,Ki87,133,1987,11,3,3,,24.733,172.083,347.5,2,312.9,2,-99,-9.9,-9.9,-99.9,26.3,2,-9.999,9,33.57
Kaiyo-Maru,Ki87,134,1987,11,3,4,,24.717,172.233,347.4,2,311.8,2,-99,-9.9,-9.9,-99.9,26.2,2,-9.999,9,33.37
Kaiyo-Maru,Ki87,135,1987,11,3,5,,24.7,172.417,347.4,2,311.8,2,-99,-9.9,-9.9,-99.9,26.1,2,-9.999,9,33.18
Kaiyo-Maru,Ki87,136,1987,11,3,6,,24.667,172.583,347.5,2,316.2,2,-99,-9.9,-9.9,-99.9,26.1,2,-9.999,9,33.18
Kaiyo-Maru,Ki87,137,1987,11,3,7,,24.617,172.783,347.6,2,317.6,2,-99,-9.9,-9.9,-99.9,26,2,-9.999,9,32.98
Kaiyo-Maru,Ki87,138,1987,11,3,8,,24.583,172.933,347.5,2,313.8,2,-99,-9.9,-9.9,-99.9,25.9,2,-9.999,9,32.79
Kaiyo-Maru,Ki87,139,1987,11,3,9,,24.567,173.133,347.4,2,305.5,2,-99,-9.9,-9.9,-99.9,26,2,-9.999,9,32.98
Kaiyo-Maru,Ki87,140,1987,11,3,10,,24.533,173.283,347.4,2,307.9,2,-99,-9.9,-9.9,-99.9,25.7,2,-9.999,9,32.4
Kaiyo-Maru,Ki87,141,1987,11,3,11,,24.517,173.433,347.4,2,307.7,2,-99,-9.9,-9.9,-99.9,25.6,2,-9.999,9,32.21
Kaiyo-Maru,Ki87,142,1987,11,3,12,,24.5,173.6,347.4,2,304.4,2,-99,-9.9,-9.9,-99.9,25.8,2,-9.999,9,32.59
Kaiyo-Maru,Ki87,143,1987,11,3,13,,24.467,173.767,347.5,2,314.4,2,-99,-9.9,-9.9,-99.9,25.6,2,-9.999,9,32.21
Kaiyo-Maru,Ki87,144,1987,11,3,14,,24.467,173.917,347.5,2,312.8,2,-99,-9.9,-9.9,-99.9,25.9,2,-9.999,9,32.79
Kaiyo-Maru,Ki87,145,1987,11,3,15,,24.45,174.067,347.7,2,305.5,2,-99,-9.9,-9.9,-99.9,25.9,2,-9.999,9,32.79
Kaiyo-Maru,Ki87,146,1987,11,3,16,,24.433,174.217,347.7,2,305.5,2,-99,-9.9,-9.9,-99.9,25.7,2,-9.999,9,32.4
Kaiyo-Maru,Ki87,147,1987,11,3,17,,24.4,174.383,347.7,2,301.5,2,-99,-9.9,-9.9,-99.9,25.7,2,-9.999,9,32.4
Kaiyo-Maru,Ki87,148,1987,11,3,18,,24.383,174.533,348,2,299.2,2,-99,-9.9,-9.9,-99.9,25.7,2,-9.999,9,32.4
Kaiyo-Maru,Ki87,149,1987,11,3,19,,24.367,174.683,348,2,301.6,2,-99,-9.9,-9.9,-99.9,25.3,2,-9.999,9,31.64
Kaiyo-Maru,Ki87,150,1987,11,3,20,,24.35,174.85,347.8,2,312.1,2,-99,-9.9,-9.9,-99.9,25.1,2,-9.999,9,31.26
Kaiyo-Maru,Ki87,151,1987,11,3,21,,24.333,175,347.8,2,311.3,2,-99,-9.9,-9.9,-99.9,25.5,2,-9.999,9,32.02
Kaiyo-Maru,Ki87,152,1987,11,3,22,,24.3,175.15,347.8,2,314.1,2,-99,-9.9,-9.9,-99.9,25.6,2,-9.999,9,32.21
Kaiyo-Maru,Ki87,153,1987,11,3,23,,24.267,175.283,347.8,2,309.8,2,-99,-9.9,-9.9,-99.9,25.5,2,-9.999,9,32.02
Kaiyo-Maru,Ki87,154,1987,11,4,0,,24.25,175.45,348.1,2,311.2,2,-99,-9.9,-9.9,-99.9,25.3,2,-9.999,9,31.64
Kaiyo-Maru,Ki87,155,1987,11,4,1,,24.217,175.583,348.3,2,314.2,2,-99,-9.9,-9.9,-99.9,25.3,2,-9.999,9,31.64
Kaiyo-Maru,Ki87,156,1987,11,4,2,,24.183,175.733,348.3,2,312.7,2,-99,-9.9,-9.9,-99.9,25.4,2,-9.999,9,31.83
Kaiyo-Maru,Ki87,157,1987,11,4,3,,24.133,175.9,348.2,2,313.2,2,-99,-9.9,-9.9,-99.9,25.4,2,-9.999,9,31.83
Kaiyo-Maru,Ki87,158,1987,11,4,4,,24.117,176.05,348,2,319.8,2,-99,-9.9,-9.9,-99.9,25.4,2,-9.999,9,31.83
Kaiyo-Maru,Ki87,159,1987,11,4,5,,24.067,176.2,348.1,2,314.4,2,-99,-9.9,-9.9,-99.9,25.4,2,-9.999,9,31.83
Kaiyo-Maru,Ki87,160,1987,11,4,6,,24.033,176.367,348.1,2,317,2,-99,-9.9,-9.9,-99.9,25.5,2,-9.999,9,32.02
Kaiyo-Maru,Ki87,161,1987,11,4,7,,24,176.517,348.4,2,312.4,2,-99,-9.9,-9.9,-99.9,25.6,2,-9.999,9,32.21
Kaiyo-Maru,Ki87,162,1987,11,4,8,,23.967,176.683,348.3,2,313.3,2,-99,-9.9,-9.9,-99.9,25.8,2,-9.999,9,32.59
Kaiyo-Maru,Ki87,163,1987,11,4,9,,23.9,176.867,348.4,2,313.3,2,-99,-9.9,-9.9,-99.9,25.9,2,-9.999,9,32.79
Kaiyo-Maru,Ki87,164,1987,11,4,10,,23.883,176.983,348.4,2,311.9,2,-99,-9.9,-9.9,-99.9,25.9,2,-9.999,9,32.79
Kaiyo-Maru,Ki87,165,1987,11,4,11,,23.85,177.133,348.4,2,310,2,-99,-9.9,-9.9,-99.9,25.9,2,-9.999,9,32.79
Kaiyo-Maru,Ki87,166,1987,11,4,12,,23.8,177.3,348.3,2,314.1,2,-99,-9.9,-9.9,-99.9,25.9,2,-9.999,9,32.79
Kaiyo-Maru,Ki87,167,1987,11,4,13,,23.767,177.45,348.3,2,317,2,-99,-9.9,-9.9,-99.9,25.8,2,-9.999,9,32.59
Kaiyo-Maru,Ki87,168,1987,11,4,14,,23.717,177.583,348.3,4,314.3,2,-99,-9.9,-9.9,-99.9,26,2,-9.999,9,32.98
Kaiyo-Maru,Ki87,169,1987,11,4,15,,23.683,177.717,348,2,314.1,2,-99,-9.9,-9.9,-99.9,26.2,2,-9.999,9,33.37
Kaiyo-Maru,Ki87,170,1987,11,4,16,,23.65,177.867,348,2,314.3,2,-99,-9.9,-9.9,-99.9,26.3,2,-9.999,9,33.57
Kaiyo-Maru,Ki87,171,1987,11,4,17,,23.6,178.017,348,2,309.5,2,-99,-9.9,-9.9,-99.9,26.4,2,-9.999,9,33.77
Kaiyo-Maru,Ki87,172,1987,11,4,18,,23.567,178.167,348.1,2,315.5,2,-99,-9.9,-9.9,-99.9,26.1,2,-9.999,9,33.18
Kaiyo-Maru,Ki87,173,1987,11,4,19,,23.533,178.317,348,2,310.1,2,-99,-9.9,-9.9,-99.9,26.3,2,-9.999,9,33.57
Kaiyo-Maru,Ki87,174,1987,11,4,20,,23.5,178.467,347.9,2,317,2,-99,-9.9,-9.9,-99.9,26,2,-9.999,9,32.98
Kaiyo-Maru,Ki87,175,1987,11,4,21,,23.467,178.617,347.9,2,315.3,2,-99,-9.9,-9.9,-99.9,26.2,2,-9.999,9,33.37
Kaiyo-Maru,Ki87,176,1987,11,4,22,,23.417,178.767,347.7,2,307.9,4,-99,-9.9,-9.9,-99.9,25.7,2,-9.999,9,32.4
Kaiyo-Maru,Ki87,177,1987,11,4,23,,23.383,178.933,347.8,2,319.1,2,-99,-9.9,-9.9,-99.9,25.5,2,-9.999,9,32.02
Kaiyo-Maru,Ki87,178,1987,11,5,0,,23.333,179.1,347.7,2,317,2,-99,-9.9,-9.9,-99.9,25.9,2,-9.999,9,32.79
Kaiyo-Maru,Ki87,179,1987,11,5,1,,23.3,179.267,347.8,2,318.8,2,-99,-9.9,-9.9,-99.9,25.6,2,-9.999,9,32.21
Kaiyo-Maru,Ki87,180,1987,11,5,2,,23.25,179.417,347.6,2,318.1,2,-99,-9.9,-9.9,-99.9,26.1,2,-9.999,9,33.18
Kaiyo-Maru,Ki87,181,1987,11,5,3,,23.217,179.583,347.6,2,318.7,2,-99,-9.9,-9.9,-99.9,26.3,2,-9.999,9,33.57
Kaiyo-Maru,Ki87,182,1987,11,5,4,,23.183,179.75,347.5,2,322.2,2,-99,-9.9,-9.9,-99.9,26.3,2,-9.999,9,33.57
Kaiyo-Maru,Ki87,183,1987,11,5,5,,23.15,179.917,347.5,2,313,2,-99,-9.9,-9.9,-99.9,26.3,2,-9.999,9,33.57
Kaiyo-Maru,Ki87,184,1987,11,5,6,,23.1,180.1,347.6,2,313,2,-99,-9.9,-9.9,-99.9,26.1,2,-9.999,9,33.18
Kaiyo-Maru,Ki87,185,1987,11,5,7,,23.067,180.267,347.7,2,311.8,2,-99,-9.9,-9.9,-99.9,25.7,2,-9.999,9,32.4
Kaiyo-Maru,Ki87,186,1987,11,5,8,,23,180.5,347.7,2,319.8,2,-99,-9.9,-9.9,-99.9,25.7,2,-9.999,9,32.4
Kaiyo-Maru,Ki87,187,1987,11,5,9,,22.983,180.583,347.5,2,319.6,2,-99,-9.9,-9.9,-99.9,26,2,-9.999,9,32.98
Kaiyo-Maru,Ki87,188,1987,11,5,10,,22.95,180.75,347.5,2,316.5,2,-99,-9.9,-9.9,-99.9,26.2,2,-9.999,9,33.37
Kaiyo-Maru,Ki87,189,1987,11,5,11,,22.9,180.9,347.5,2,316.2,2,-99,-9.9,-9.9,-99.9,26.2,2,-9.999,9,33.37
Kaiyo-Maru,Ki87,190,1987,11,5,12,,22.85,181.05,347.6,2,314,2,-99,-9.9,-9.9,-99.9,26.1,2,-9.999,9,33.18
Kaiyo-Maru,Ki87,191,1987,11,5,13,,22.8,181.2,347.6,2,319.5,2,-99,-9.9,-9.9,-99.9,26,2,-9.999,9,32.98
Kaiyo-Maru,Ki87,192,1987,11,5,14,,22.767,181.367,347.5,2,321.1,2,-99,-9.9,-9.9,-99.9,26.4,2,-9.999,9,33.77
Kaiyo-Maru,Ki87,193,1987,11,5,15,,22.733,181.517,347.5,2,316.7,2,-99,-9.9,-9.9,-99.9,26.8,2,-9.999,9,34.57
Kaiyo-Maru,Ki87,194,1987,11,5,16,,22.7,181.667,347.5,2,313.5,2,-99,-9.9,-9.9,-99.9,26.7,2,-9.999,9,34.37
Kaiyo-Maru,Ki87,195,1987,11,5,17,,22.667,181.817,347.6,2,316.1,2,-99,-9.9,-9.9,-99.9,26.6,2,-9.999,9,34.17
Kaiyo-Maru,Ki87,196,1987,11,5,18,,22.617,181.967,347.6,2,312.9,2,-99,-9.9,-9.9,-99.9,26.6,2,-9.999,9,34.17
Kaiyo-Maru,Ki87,197,1987,11,5,19,,22.583,182.133,347.7,2,318.4,2,-99,-9.9,-9.9,-99.9,26.2,2,-9.999,9,33.37
Kaiyo-Maru,Ki87,198,1987,11,5,20,,22.55,182.283,347.6,2,320.1,2,-99,-9.9,-9.9,-99.9,26.3,2,-9.999,9,33.57
Kaiyo-Maru,Ki87,199,1987,11,5,21,,22.517,182.45,347.5,2,316.7,2,-99,-9.9,-9.9,-99.9,26.5,2,-9.999,9,33.97
Kaiyo-Maru,Ki87,200,1987,11,5,22,,22.5,182.6,347.5,2,318.9,2,-99,-9.9,-9.9,-99.9,26.5,2,-9.999,9,33.97
Kaiyo-Maru,Ki87,201,1987,11,5,23,,22.45,182.767,347.5,2,320.6,2,-99,-9.9,-9.9,-99.9,26.8,2,-9.999,9,34.57
Kaiyo-Maru,Ki87,202,1987,11,6,0,,22.417,182.95,347.4,2,322.8,2,-99,-9.9,-9.9,-99.9,26.8,2,-9.999,9,34.57
Kaiyo-Maru,Ki87,203,1987,11,6,1,,22.383,183.117,347.4,2,324.2,2,-99,-9.9,-9.9,-99.9,26.9,2,-9.999,9,34.78
Kaiyo-Maru,Ki87,204,1987,11,6,2,,22.333,183.3,347.4,2,328.2,2,-99,-9.9,-9.9,-99.9,26.9,2,-9.999,9,34.78
Kaiyo-Maru,Ki87,205,1987,11,6,3,,22.3,183.467,347.4,2,326,2,-99,-9.9,-9.9,-99.9,26.9,2,-9.999,9,34.78
Kaiyo-Maru,Ki87,206,1987,11,6,4,,22.267,183.633,347.6,2,326.7,2,-99,-9.9,-9.9,-99.9,27,2,-9.999,9,34.98
Kaiyo-Maru,Ki87,207,1987,11,6,5,,22.233,183.817,347.6,2,331,2,-99,-9.9,-9.9,-99.9,27.2,2,-9.999,9,35.4
Kaiyo-Maru,Ki87,208,1987,11,6,6,,22.2,183.983,347.5,2,331.8,2,-99,-9.9,-9.9,-99.9,27.2,2,-9.999,9,35.4
Kaiyo-Maru,Ki87,209,1987,11,6,7,,22.183,184.15,347.6,2,326.4,2,-99,-9.9,-9.9,-99.9,27.2,2,-9.999,9,35.4
Kaiyo-Maru,Ki87,210,1987,11,6,8,,22.15,184.317,347.6,2,323.5,2,-99,-9.9,-9.9,-99.9,27.2,2,-9.999,9,35.4
Kaiyo-Maru,Ki87,211,1987,11,6,9,,22.117,184.483,347.6,2,324.4,2,-99,-9.9,-9.9,-99.9,27.2,2,-9.999,9,35.4
Kaiyo-Maru,Ki87,212,1987,11,6,10,,22.083,184.633,347.6,2,326.5,2,-99,-9.9,-9.9,-99.9,27.2,2,-9.999,9,35.4
Kaiyo-Maru,Ki87,213,1987,11,6,11,,22.05,184.783,347.6,2,322.8,2,-99,-9.9,-9.9,-99.9,27.1,2,-9.999,9,35.19
Kaiyo-Maru,Ki87,214,1987,11,6,12,,22,184.933,347.5,2,321.3,2,-99,-9.9,-9.9,-99.9,27.1,2,-9.999,9,35.19
Kaiyo-Maru,Ki87,215,1987,11,6,13,,21.967,185.083,347.7,2,319.8,2,-99,-9.9,-9.9,-99.9,27,2,-9.999,9,34.98
Kaiyo-Maru,Ki87,216,1987,11,6,14,,21.917,185.267,347.7,2,312.5,2,-99,-9.9,-9.9,-99.9,26.9,2,-9.999,9,34.78
Kaiyo-Maru,Ki87,217,1987,11,6,15,,21.867,185.417,347.7,2,314.2,2,-99,-9.9,-9.9,-99.9,26.3,2,-9.999,9,33.57
Kaiyo-Maru,Ki87,218,1987,11,6,16,,21.833,185.583,347.7,2,315.8,2,-99,-9.9,-9.9,-99.9,26.2,2,-9.999,9,33.37
Kaiyo-Maru,Ki87,219,1987,11,6,17,,21.783,185.75,347.5,2,318.4,2,-99,-9.9,-9.9,-99.9,26.2,2,-9.999,9,33.37
Kaiyo-Maru,Ki87,220,1987,11,6,18,,21.75,185.917,347.5,2,320.8,2,-99,-9.9,-9.9,-99.9,26.2,2,-9.999,9,33.37
Kaiyo-Maru,Ki87,221,1987,11,6,19,,21.7,186.083,347.6,2,321,2,-99,-9.9,-9.9,-99.9,26,2,-9.999,9,32.98